Regional Weather Roundup
Issued by NWS Cleveland, OH

Home | Current Version | Previous Version | Graphics & Text | Print | Product List | Glossary On
Versions: 1 2 3 4 5 6 7 8 9 10 11 12 13 14 15 16 17 18 19 20 21 22 23 24 25 26 27 28 29 30 31 32 33 34 35 36 37 38 39 40 41 42 43 44 45 46 47 48 49 50
000
ASUS41 KCLE 231710
RWRCLE
OHIO REGIONAL WEATHER ROUNDUP
NATIONAL WEATHER SERVICE WILMINGTON, OH
100 PM EDT THU OCT 23 2014

NOTE: "FAIR" INDICATES FEW OR NO CLOUDS BELOW 12,000 FEET WITH NO
SIGNIFICANT WEATHER AND/OR OBSTRUCTIONS TO VISIBILITY.

OHZ001>008-015>018-024>027-034-035-043-044-231800-
   NORTHWEST OHIO

CITY           SKY/WX    TMP DP  RH WIND       PRES   REMARKS
DEFIANCE       SUNNY     53  41  63 VRB3      30.24F
FINDLAY        CLOUDY    46  43  89 W5        30.24F
TOLEDO EXPRESS CLOUDY    51  42  71 W5        30.24F
TOLEDO METCALF SUNNY     53  39  59 SW5       30.23F
LIMA           SUNNY     52  40  63 CALM      30.23F
$$

OHZ009>014-019>023-028>033-038-089-231800-
   NORTHEAST OHIO

CITY           SKY/WX    TMP DP  RH WIND       PRES   REMARKS
CLE-HOPKINS    PTSUNNY   53  45  74 NW10      30.22F
CLE-LAKEFRONT  CLOUDY    52  46  80 NW9       30.20F
CUY CO. ARPT   PTSUNNY   54  48  82 NW12      30.20S
LORAIN-ELYRIA  MOSUNNY   53  43  68 N9        30.21F
ASHTABULA      MOSUNNY   56  42  59 N10       30.16F
AKRON-CANTON   PTSUNNY   56  43  61 N9        30.16F
WOOSTER        PTSUNNY   55  43  63 NW13      30.19F
MANSFIELD      SUNNY     51  40  65 N6        30.21F
YOUNGSTOWN     PTSUNNY   57  44  62 NW15      30.14F
$$

OHZ042-051>053-060>062-070>072-077>081-231800-
  SOUTHWEST OHIO

CITY           SKY/WX    TMP DP  RH WIND       PRES   REMARKS
CINC-COVINGTON MOSUNNY   56  40  55 CALM      30.23F
CINC-LUNKEN    SUNNY     55  42  61 SW5       30.24F
HAMILTON       SUNNY     56  41  57 VRB3      30.24F
DAYTON         MOSUNNY   56  40  55 CALM      30.24F
WRIGHT-PAT AFB SUNNY     55  41  60 CALM      30.23F
DAYTON GENERAL SUNNY     55  41  59 N5        30.22F
WILMINGTON     MOSUNNY   54  39  57 CALM      30.22F
$$

OHZ036-037-039>041-045>050-054>059-063>069-073>076-082>088-231800-
  CENTRAL AND SOUTHEAST OHIO

CITY           SKY/WX    TMP DP  RH WIND       PRES   REMARKS
COLUMBUS       MOSUNNY   54  42  64 VRB7      30.21F
OSU AIRPORT    SUNNY     52  42  69 N9        30.22F
BOLTON FIELD   SUNNY     54  43  66 N5        30.23F
RICKENBACK AFB SUNNY     53  42  65 NW8       30.22F
NEWARK         SUNNY     57  42  57 NW6       30.20F
MARION         MOSUNNY   49  42  77 NW8       30.23F
LANCASTER      SUNNY     54  43  66 W3        30.21F
ZANESVILLE     PTSUNNY   52  41  66 NW7       30.20F
NEW PHILLY     CLOUDY    55  44  66 NW10G17   30.18F
$$



USA.gov is the U.S. government's official web portal to all federal, state and local government web resources and services.